Time,TemperatureF,DewpointF,PressureIn,WindDirection,WindDirectionDegrees,WindSpeedMPH,WindSpeedGustMPH,Humidity,HourlyPrecipIn,Conditions,Clouds,dailyrainin,SoftwareType,DateUTC
2014-09-22 00:10:00,63.9,60.0,30.01,WNW,297,1.0,2.0,87,0.00,,,0.00,weatherlink.com 1.10,2014-09-22 07:10:00,
2014-09-22 00:25:00,63.9,60.0,30.01,WNW,300,1.0,3.0,87,0.00,,,0.00,weatherlink.com 1.10,2014-09-22 07:25:00,
2014-09-22 00:40:00,63.8,60.0,30.01,NNE,19,1.0,2.0,87,0.00,,,0.00,weatherlink.com 1.10,2014-09-22 07:40:00,
2014-09-22 00:55:00,63.8,60.0,30.00,WNW,295,1.0,2.0,87,0.00,,,0.00,weatherlink.com 1.10,2014-09-22 07:55:00,
2014-09-22 01:10:00,63.7,60.0,30.00,NNE,27,0.0,2.0,88,0.00,,,0.00,weatherlink.com 1.10,2014-09-22 08:10:00,
2014-09-22 01:25:00,63.7,60.0,30.00,ENE,70,2.0,2.0,88,0.00,,,0.00,weatherlink.com 1.10,2014-09-22 08:25:00,
2014-09-22 01:40:00,63.6,60.0,30.00,NNE,26,0.0,0.0,87,0.00,,,0.00,weatherlink.com 1.10,2014-09-22 08:40:00,
2014-09-22 01:55:00,63.6,60.0,30.00,NNW,348,0.0,2.0,87,0.00,,,0.00,weatherlink.com 1.10,2014-09-22 08:55:00,
2014-09-22 02:10:00,63.6,60.0,30.00,WNW,285,0.0,2.0,88,0.00,,,0.00,weatherlink.com 1.10,2014-09-22 09:10:00,
2014-09-22 02:25:00,63.5,60.0,30.00,NNE,20,1.0,3.0,87,0.00,,,0.00,weatherlink.com 1.10,2014-09-22 09:25:00,
2014-09-22 02:40:00,63.4,60.0,30.00,North,4,0.0,3.0,87,0.00,,,0.00,weatherlink.com 1.10,2014-09-22 09:40:00,
2014-09-22 02:55:00,63.3,60.0,29.99,WNW,285,1.0,2.0,88,0.00,,,0.00,weatherlink.com 1.10,2014-09-22 09:55:00,
2014-09-22 03:10:00,63.4,60.0,29.99,WNW,284,1.0,2.0,88,0.00,,,0.00,weatherlink.com 1.10,2014-09-22 10:10:00,
2014-09-22 03:25:00,63.3,59.0,29.99,WNW,283,2.0,3.0,87,0.00,,,0.00,weatherlink.com 1.10,2014-09-22 10:25:00,
2014-09-22 03:40:00,63.3,59.0,29.99,WNW,285,1.0,4.0,87,0.00,,,0.00,weatherlink.com 1.10,2014-09-22 10:40:00,
2014-09-22 03:55:00,63.4,60.0,29.99,NW,319,1.0,3.0,87,0.00,,,0.00,weatherlink.com 1.10,2014-09-22 10:55:00,
2014-09-22 04:10:00,63.2,59.0,29.99,WNW,293,1.0,5.0,87,0.00,,,0.00,weatherlink.com 1.10,2014-09-22 11:10:00,
2014-09-22 04:25:00,63.1,60.0,29.99,WNW,302,0.0,5.0,88,0.00,,,0.00,weatherlink.com 1.10,2014-09-22 11:25:00,
2014-09-22 04:40:00,62.9,59.0,30.00,WNW,285,1.0,6.0,88,0.00,,,0.00,weatherlink.com 1.10,2014-09-22 11:40:00,
2014-09-22 04:55:00,62.8,59.0,30.00,NW,307,2.0,3.0,88,0.00,,,0.00,weatherlink.com 1.10,2014-09-22 11:55:00,
2014-09-22 05:10:00,62.8,59.0,30.00,WNW,282,1.0,3.0,88,0.00,,,0.00,weatherlink.com 1.10,2014-09-22 12:10:00,
2014-09-22 05:26:00,62.7,59.0,30.00,West,280,1.0,5.0,88,0.00,,,0.00,weatherlink.com 1.10,2014-09-22 12:26:00,
2014-09-22 05:41:00,62.6,59.0,30.00,WNW,299,0.0,3.0,88,0.00,,,0.00,weatherlink.com 1.10,2014-09-22 12:41:00,
2014-09-22 05:56:00,62.7,60.0,30.00,WNW,283,0.0,0.0,89,0.00,,,0.00,weatherlink.com 1.10,2014-09-22 12:56:00,
2014-09-22 06:11:00,62.8,59.0,30.00,West,281,1.0,4.0,88,0.00,,,0.00,weatherlink.com 1.10,2014-09-22 13:11:00,
2014-09-22 06:26:00,62.6,59.0,30.00,West,271,2.0,5.0,88,0.00,,,0.00,weatherlink.com 1.10,2014-09-22 13:26:00,
2014-09-22 06:41:00,62.5,59.0,30.00,West,278,1.0,3.0,88,0.00,,,0.00,weatherlink.com 1.10,2014-09-22 13:41:00,
2014-09-22 06:56:00,62.6,59.0,30.00,West,276,1.0,3.0,88,0.00,,,0.00,weatherlink.com 1.10,2014-09-22 13:56:00,
2014-09-22 07:11:00,62.5,59.0,30.01,West,275,2.0,4.0,88,0.00,,,0.00,weatherlink.com 1.10,2014-09-22 14:11:00,
2014-09-22 07:26:00,62.5,59.0,30.01,West,278,0.0,0.0,88,0.00,,,0.00,weatherlink.com 1.10,2014-09-22 14:26:00,
2014-09-22 07:41:00,62.6,59.0,30.02,WNW,282,3.0,3.0,87,0.00,,,0.00,weatherlink.com 1.10,2014-09-22 14:41:00,
2014-09-22 07:56:00,62.7,59.0,30.02,NNE,25,0.0,3.0,87,0.00,,,0.00,weatherlink.com 1.10,2014-09-22 14:56:00,